Time,TemperatureF,DewpointF,PressureIn,WindDirection,WindDirectionDegrees,WindSpeedMPH,WindSpeedGustMPH,Humidity,HourlyPrecipIn,Conditions,Clouds,dailyrainin,SoftwareType,DateUTC
2013-02-23 00:03:00,35.0,31.0,29.99,SSE,167,7.0,11.0,85,0.00,,,0.01,,2013-02-23 05:03:00,
2013-02-23 00:12:00,35.0,31.0,29.99,SSE,167,7.0,11.0,85,0.00,,,0.01,,2013-02-23 05:12:00,
2013-02-23 00:22:00,36.0,32.0,29.98,South,185,9.0,15.0,84,0.00,,,0.01,,2013-02-23 05:22:00,
2013-02-23 00:33:00,35.0,31.0,29.98,South,172,10.0,17.0,84,0.00,,,0.01,,2013-02-23 05:33:00,
2013-02-23 00:42:00,35.0,31.0,29.98,South,172,10.0,17.0,84,0.00,,,0.01,,2013-02-23 05:42:00,
2013-02-23 00:52:00,34.0,31.0,29.99,SSE,168,9.0,14.0,90,0.00,,,0.01,,2013-02-23 05:52:00,
2013-02-23 01:01:00,34.0,31.0,29.99,SSW,196,7.0,14.0,90,0.00,,,0.01,,2013-02-23 06:01:00,
2013-02-23 01:11:00,34.0,31.0,29.99,SSW,196,7.0,14.0,90,0.00,,,0.01,,2013-02-23 06:11:00,
2013-02-23 01:22:00,34.0,32.0,29.99,SW,219,9.0,12.0,91,0.00,,,0.01,,2013-02-23 06:22:00,
2013-02-23 01:32:00,33.0,31.0,29.99,SW,221,8.0,14.0,91,0.00,,,0.01,,2013-02-23 06:32:00,
2013-02-23 01:42:00,33.0,31.0,29.99,SW,221,8.0,14.0,91,0.00,,,0.01,,2013-02-23 06:42:00,
2013-02-23 01:52:00,33.0,31.0,29.99,SW,221,8.0,14.0,91,0.00,,,0.01,,2013-02-23 06:52:00,
2013-02-23 02:01:00,32.0,30.0,29.99,South,191,6.0,14.0,92,0.00,,,0.01,,2013-02-23 07:01:00,
2013-02-23 02:11:00,32.0,30.0,29.99,South,191,6.0,14.0,92,0.00,,,0.01,,2013-02-23 07:11:00,
2013-02-23 02:21:00,32.0,30.0,29.99,SW,229,8.0,15.0,93,0.00,,,0.01,,2013-02-23 07:21:00,
2013-02-23 02:32:00,32.0,30.0,29.99,SW,229,8.0,15.0,93,0.00,,,0.01,,2013-02-23 07:32:00,
2013-02-23 02:42:00,32.0,30.0,29.99,SW,229,8.0,15.0,93,0.00,,,0.01,,2013-02-23 07:42:00,
2013-02-23 02:52:00,32.0,30.0,29.99,SW,227,4.0,12.0,93,0.00,,,0.01,,2013-02-23 07:52:00,
2013-02-23 03:01:00,32.0,30.0,29.99,SSW,213,4.0,11.0,93,0.00,,,0.01,,2013-02-23 08:01:00,
2013-02-23 03:11:00,32.0,30.0,29.99,SSW,213,4.0,11.0,93,0.00,,,0.01,,2013-02-23 08:11:00,
2013-02-23 03:21:00,32.0,30.0,29.98,SW,222,7.0,12.0,92,0.00,,,0.01,,2013-02-23 08:21:00,
2013-02-23 03:32:00,32.0,30.0,29.98,South,181,6.0,13.0,91,0.00,,,0.01,,2013-02-23 08:32:00,
2013-02-23 03:42:00,32.0,30.0,29.98,South,181,6.0,13.0,91,0.00,,,0.01,,2013-02-23 08:42:00,
2013-02-23 03:53:00,32.0,29.0,29.98,South,170,8.0,16.0,90,0.00,,,0.01,,2013-02-23 08:53:00,
2013-02-23 04:02:00,32.0,29.0,29.98,South,170,8.0,16.0,90,0.00,,,0.01,,2013-02-23 09:02:00,
2013-02-23 04:11:00,32.0,29.0,29.98,South,170,8.0,16.0,90,0.00,,,0.01,,2013-02-23 09:11:00,
2013-02-23 04:22:00,32.0,29.0,29.98,SW,236,7.0,15.0,89,0.00,,,0.01,,2013-02-23 09:22:00,
2013-02-23 04:32:00,31.0,28.0,29.98,SW,217,10.0,15.0,87,0.00,,,0.01,,2013-02-23 09:32:00,
2013-02-23 04:42:00,31.0,28.0,29.98,SW,217,10.0,15.0,87,0.00,,,0.01,,2013-02-23 09:42:00,
2013-02-23 04:52:00,31.0,27.0,29.99,SSW,199,9.0,18.0,85,0.00,,,0.01,,2013-02-23 09:52:00,
2013-02-23 05:01:00,31.0,27.0,29.99,SSW,213,9.0,17.0,84,0.00,,,0.01,,2013-02-23 10:01:00,
2013-02-23 05:11:00,30.0,26.0,29.99,WSW,238,7.0,15.0,84,0.00,,,0.01,,2013-02-23 10:11:00,
2013-02-23 05:21:00,30.0,26.0,29.99,WSW,238,7.0,15.0,84,0.00,,,0.01,,2013-02-23 10:21:00,
2013-02-23 05:32:00,30.0,26.0,29.99,WSW,238,7.0,15.0,84,0.00,,,0.01,,2013-02-23 10:32:00,
2013-02-23 05:42:00,30.0,26.0,29.99,WSW,238,7.0,15.0,84,0.00,,,0.01,,2013-02-23 10:42:00,
2013-02-23 05:52:00,30.0,26.0,30.00,SSW,210,5.0,14.0,84,0.00,,,0.01,,2013-02-23 10:52:00,
2013-02-23 06:02:00,30.0,26.0,30.00,SSW,210,5.0,14.0,84,0.00,,,0.01,,2013-02-23 11:02:00,
2013-02-23 06:11:00,30.0,26.0,30.00,SSW,210,5.0,14.0,84,0.00,,,0.01,,2013-02-23 11:11:00,
2013-02-23 06:22:00,30.0,26.0,30.00,SW,219,5.0,12.0,84,0.00,,,0.01,,2013-02-23 11:22:00,
2013-02-23 06:32:00,30.0,26.0,30.00,SW,219,5.0,12.0,84,0.00,,,0.01,,2013-02-23 11:32:00,
2013-02-23 06:42:00,30.0,26.0,30.00,SW,219,5.0,12.0,84,0.00,,,0.01,,2013-02-23 11:42:00,
2013-02-23 06:52:00,30.0,26.0,30.00,SW,223,6.0,13.0,84,0.00,,,0.01,,2013-02-23 11:52:00,
2013-02-23 07:02:00,30.0,25.0,30.00,SSW,213,9.0,14.0,83,0.00,,,0.01,,2013-02-23 12:02:00,
2013-02-23 07:11:00,30.0,25.0,30.00,SSW,213,9.0,14.0,83,0.00,,,0.01,,2013-02-23 12:11:00,
2013-02-23 07:21:00,30.0,25.0,30.01,SSW,202,7.0,15.0,82,0.00,,,0.01,,2013-02-23 12:21:00,
2013-02-23 07:32:00,30.0,25.0,30.00,SW,216,8.0,15.0,81,0.00,,,0.01,,2013-02-23 12:32:00,
2013-02-23 07:42:00,30.0,25.0,30.00,SW,216,8.0,15.0,81,0.00,,,0.01,,2013-02-23 12:42:00,
2013-02-23 07:52:00,30.0,24.0,30.01,South,190,5.0,15.0,78,0.00,,,0.01,,2013-02-23 12:52:00,
2013-02-23 08:01:00,30.0,24.0,30.01,SSW,196,8.0,14.0,79,0.00,,,0.01,,2013-02-23 13:01:00,
2013-02-23 08:11:00,29.0,23.0,30.01,SW,214,12.0,19.0,79,0.00,,,0.01,,2013-02-23 13:11:00,
2013-02-23 08:22:00,29.0,23.0,30.01,SW,214,12.0,19.0,79,0.00,,,0.01,,2013-02-23 13:22:00,
2013-02-23 08:32:00,29.0,24.0,30.02,SSW,202,7.0,17.0,81,0.00,,,0.01,,2013-02-23 13:32:00,
2013-02-23 08:42:00,29.0,24.0,30.03,SSW,192,6.0,14.0,82,0.00,,,0.01,,2013-02-23 13:42:00,
2013-02-23 08:52:00,29.0,24.0,30.03,SSW,192,6.0,14.0,82,0.00,,,0.01,,2013-02-23 13:52:00,
2013-02-23 09:02:00,29.0,24.0,30.03,SSW,203,8.0,13.0,81,0.00,,,0.01,,2013-02-23 14:02:00,
2013-02-23 09:11:00,29.0,24.0,30.03,SSW,203,8.0,13.0,81,0.00,,,0.01,,2013-02-23 14:11:00,
2013-02-23 09:21:00,30.0,25.0,30.03,SSW,209,7.0,17.0,81,0.00,,,0.01,,2013-02-23 14:21:00,
2013-02-23 09:32:00,29.0,24.0,30.03,SW,218,8.0,15.0,82,0.00,,,0.01,,2013-02-23 14:32:00,
2013-02-23 09:42:00,29.0,24.0,30.03,SW,218,8.0,15.0,82,0.00,,,0.01,,2013-02-23 14:42:00,
2013-02-23 09:52:00,30.0,24.0,30.03,SSW,213,8.0,14.0,79,0.00,,,0.01,,2013-02-23 14:52:00,
2013-02-23 10:02:00,30.0,24.0,30.03,SSW,213,8.0,14.0,79,0.00,,,0.01,,2013-02-23 15:02:00,
2013-02-23 10:11:00,30.0,24.0,30.03,SSW,213,8.0,14.0,79,0.00,,,0.01,,2013-02-23 15:11:00,
2013-02-23 10:22:00,29.0,24.0,30.02,South,191,8.0,15.0,80,0.00,,,0.01,,2013-02-23 15:22:00,
2013-02-23 10:32:00,30.0,24.0,30.01,SSW,213,8.0,15.0,79,0.00,,,0.01,,2013-02-23 15:32:00,
2013-02-23 10:42:00,30.0,24.0,30.01,SSW,213,8.0,15.0,79,0.00,,,0.01,,2013-02-23 15:42:00,
2013-02-23 10:52:00,32.0,24.0,30.01,SSW,209,13.0,20.0,73,0.00,,,0.01,,2013-02-23 15:52:00,
2013-02-23 11:01:00,31.0,24.0,30.00,South,175,10.0,16.0,74,0.00,,,0.01,,2013-02-23 16:01:00,
2013-02-23 11:11:00,31.0,24.0,30.00,South,175,10.0,16.0,74,0.00,,,0.01,,2013-02-23 16:11:00,
2013-02-23 11:21:00,31.0,24.0,30.00,SSW,213,9.0,15.0,76,0.00,,,0.01,,2013-02-23 16:21:00,
2013-02-23 11:31:00,31.0,24.0,30.01,WSW,244,5.0,15.0,76,0.00,,,0.01,,2013-02-23 16:31:00,
2013-02-23 11:42:00,31.0,24.0,30.01,WSW,244,5.0,15.0,76,0.00,,,0.01,,2013-02-23 16:42:00,
2013-02-23 11:52:00,31.0,24.0,30.00,South,173,7.0,14.0,75,0.00,,,0.01,,2013-02-23 16:52:00,
2013-02-23 12:01:00,32.0,24.0,30.01,SSW,192,10.0,17.0,73,0.00,,,0.01,,2013-02-23 17:01:00,
2013-02-23 12:11:00,31.0,24.0,30.00,SW,221,7.0,15.0,76,0.00,,,0.01,,2013-02-23 17:11:00,
2013-02-23 12:21:00,31.0,24.0,30.00,SW,221,7.0,15.0,76,0.00,,,0.01,,2013-02-23 17:21:00,
2013-02-23 12:32:00,31.0,24.0,30.01,SSW,207,10.0,16.0,75,0.00,,,0.01,,2013-02-23 17:32:00,
2013-02-23 12:42:00,31.0,24.0,30.01,SSW,207,10.0,16.0,75,0.00,,,0.01,,2013-02-23 17:42:00,
2013-02-23 12:52:00,32.0,25.0,30.00,SW,224,6.0,16.0,75,0.00,,,0.01,,2013-02-23 17:52:00,
2013-02-23 13:02:00,32.0,24.0,30.00,SW,225,11.0,16.0,73,0.00,,,0.01,,2013-02-23 18:02:00,
2013-02-23 13:12:00,32.0,24.0,30.00,SW,225,11.0,16.0,73,0.00,,,0.01,,2013-02-23 18:12:00,
2013-02-23 13:22:00,32.0,24.0,29.99,SSW,196,10.0,17.0,73,0.00,,,0.01,,2013-02-23 18:22:00,
2013-02-23 13:32:00,33.0,25.0,29.99,South,180,6.0,14.0,73,0.00,,,0.01,,2013-02-23 18:32:00,
2013-02-23 13:42:00,33.0,25.0,29.99,South,180,6.0,14.0,73,0.00,,,0.01,,2013-02-23 18:42:00,
2013-02-23 13:52:00,34.0,26.0,29.99,South,190,11.0,16.0,73,0.00,,,0.01,,2013-02-23 18:52:00,
2013-02-23 14:01:00,32.0,24.0,29.99,SW,216,10.0,17.0,73,0.00,,,0.00,,2013-02-23 19:01:00,
2013-02-23 14:11:00,33.0,25.0,29.98,SSW,196,8.0,15.0,72,0.00,,,0.00,,2013-02-23 19:11:00,
2013-02-23 14:21:00,33.0,25.0,29.98,SSW,196,8.0,15.0,72,0.00,,,0.00,,2013-02-23 19:21:00,
2013-02-23 14:32:00,33.0,25.0,29.98,SSW,196,8.0,15.0,72,0.00,,,0.00,,2013-02-23 19:32:00,
2013-02-23 14:41:00,33.0,25.0,29.98,SSW,196,8.0,15.0,72,0.00,,,0.00,,2013-02-23 19:41:00,
2013-02-23 14:52:00,33.0,25.0,29.98,SSW,196,8.0,15.0,72,0.00,,,0.00,,2013-02-23 19:52:00,
2013-02-23 15:01:00,34.0,26.0,29.96,SW,229,7.0,13.0,72,0.00,,,0.00,,2013-02-23 20:01:00,
2013-02-23 15:11:00,34.0,26.0,29.96,SW,229,7.0,13.0,72,0.00,,,0.00,,2013-02-23 20:11:00,
2013-02-23 15:22:00,34.0,26.0,29.96,SSW,202,6.0,14.0,73,0.00,,,0.00,,2013-02-23 20:22:00,
2013-02-23 15:32:00,34.0,26.0,29.96,SW,229,5.0,14.0,73,0.00,,,0.00,,2013-02-23 20:32:00,
2013-02-23 15:42:00,34.0,26.0,29.96,SW,229,5.0,14.0,73,0.00,,,0.00,,2013-02-23 20:42:00,
2013-02-23 15:53:00,35.0,29.0,29.96,SW,233,8.0,14.0,77,0.00,,,0.00,,2013-02-23 20:53:00,
2013-02-23 16:01:00,34.0,26.0,29.96,SW,221,6.0,15.0,72,0.00,,,0.00,,2013-02-23 21:01:00,
2013-02-23 16:11:00,34.0,26.0,29.96,SSW,196,8.0,13.0,72,0.00,,,0.00,,2013-02-23 21:11:00,
2013-02-23 16:22:00,34.0,26.0,29.96,SSW,196,8.0,13.0,72,0.00,,,0.00,,2013-02-23 21:22:00,
2013-02-23 16:32:00,33.0,25.0,29.96,SSW,198,9.0,17.0,72,0.00,,,0.00,,2013-02-23 21:32:00,
2013-02-23 16:42:00,33.0,25.0,29.96,SSW,198,9.0,17.0,72,0.00,,,0.00,,2013-02-23 21:42:00,
2013-02-23 16:52:00,33.0,26.0,29.97,SW,215,10.0,17.0,74,0.00,,,0.00,,2013-02-23 21:52:00,
2013-02-23 17:01:00,33.0,26.0,29.97,SSW,199,9.0,15.0,74,0.00,,,0.00,,2013-02-23 22:01:00,
2013-02-23 17:11:00,33.0,26.0,29.97,SSW,196,5.0,17.0,76,0.00,,,0.00,,2013-02-23 22:11:00,
2013-02-23 17:22:00,33.0,26.0,29.97,SSW,196,5.0,17.0,76,0.00,,,0.00,,2013-02-23 22:22:00,
2013-02-23 17:32:00,32.0,25.0,29.97,SW,224,9.0,18.0,75,0.00,,,0.00,,2013-02-23 22:32:00,
2013-02-23 17:42:00,32.0,25.0,29.97,SW,224,9.0,18.0,75,0.00,,,0.00,,2013-02-23 22:42:00,
2013-02-23 17:52:00,32.0,25.0,29.98,SW,228,8.0,13.0,76,0.00,,,0.00,,2013-02-23 22:52:00,
2013-02-23 18:01:00,32.0,26.0,29.98,SSW,192,8.0,13.0,77,0.00,,,0.00,,2013-02-23 23:01:00,
2013-02-23 18:11:00,31.0,25.0,29.98,SSW,196,8.0,15.0,77,0.00,,,0.00,,2013-02-23 23:11:00,
2013-02-23 18:21:00,31.0,25.0,29.98,SSW,196,8.0,15.0,77,0.00,,,0.00,,2013-02-23 23:21:00,
2013-02-23 18:32:00,31.0,25.0,29.98,SW,236,6.0,16.0,77,0.00,,,0.00,,2013-02-23 23:32:00,
2013-02-23 18:42:00,31.0,25.0,29.98,SW,236,6.0,16.0,77,0.00,,,0.00,,2013-02-23 23:42:00,
2013-02-23 18:52:00,31.0,25.0,29.98,SW,236,6.0,16.0,77,0.00,,,0.00,,2013-02-23 23:52:00,
2013-02-23 19:02:00,31.0,25.0,29.98,SSW,206,5.0,11.0,77,0.00,,,0.00,,2013-02-24 00:02:00,
2013-02-23 19:11:00,31.0,25.0,29.98,SSW,206,5.0,11.0,77,0.00,,,0.00,,2013-02-24 00:11:00,
2013-02-23 19:22:00,31.0,25.0,29.98,SSW,213,4.0,13.0,78,0.00,,,0.00,,2013-02-24 00:22:00,
2013-02-23 19:32:00,31.0,25.0,29.98,SSW,209,4.0,10.0,79,0.00,,,0.00,,2013-02-24 00:32:00,
2013-02-23 19:42:00,31.0,25.0,29.98,SSW,209,4.0,10.0,79,0.00,,,0.00,,2013-02-24 00:42:00,
2013-02-23 19:52:00,31.0,25.0,30.00,SW,216,4.0,9.0,79,0.00,,,0.00,,2013-02-24 00:52:00,
2013-02-23 20:01:00,30.0,24.0,29.99,SW,215,5.0,10.0,79,0.00,,,0.00,,2013-02-24 01:01:00,
2013-02-23 20:11:00,30.0,24.0,29.99,SW,215,5.0,10.0,79,0.00,,,0.00,,2013-02-24 01:11:00,
2013-02-23 20:22:00,30.0,25.0,30.00,WSW,237,3.0,7.0,80,0.00,,,0.00,,2013-02-24 01:22:00,
2013-02-23 20:32:00,30.0,24.0,29.99,WSW,257,3.0,9.0,79,0.00,,,0.00,,2013-02-24 01:32:00,
2013-02-23 20:42:00,30.0,24.0,29.99,WSW,257,3.0,9.0,79,0.00,,,0.00,,2013-02-24 01:42:00,
2013-02-23 20:52:00,30.0,24.0,30.00,SW,236,3.0,7.0,79,0.00,,,0.00,,2013-02-24 01:52:00,
2013-02-23 21:01:00,30.0,24.0,30.00,SW,236,3.0,7.0,79,0.00,,,0.00,,2013-02-24 02:01:00,
2013-02-23 21:11:00,30.0,24.0,30.00,SW,236,3.0,7.0,79,0.00,,,0.00,,2013-02-24 02:11:00,
2013-02-23 21:22:00,30.0,25.0,30.00,West,275,4.0,7.0,81,0.00,,,0.00,,2013-02-24 02:22:00,
2013-02-23 21:32:00,30.0,25.0,29.99,WSW,242,2.0,9.0,80,0.00,,,0.00,,2013-02-24 02:32:00,
2013-02-23 21:42:00,30.0,25.0,29.99,WSW,242,2.0,9.0,80,0.00,,,0.00,,2013-02-24 02:42:00,
2013-02-23 21:52:00,30.0,25.0,29.99,WSW,242,2.0,9.0,80,0.00,,,0.00,,2013-02-24 02:52:00,
2013-02-23 22:02:00,30.0,25.0,29.99,WSW,242,2.0,9.0,80,0.00,,,0.00,,2013-02-24 03:02:00,
2013-02-23 22:11:00,29.0,24.0,30.00,SSW,213,7.0,10.0,80,0.00,,,0.00,,2013-02-24 03:11:00,
2013-02-23 22:22:00,29.0,24.0,30.00,SSW,213,7.0,10.0,80,0.00,,,0.00,,2013-02-24 03:22:00,
2013-02-23 22:32:00,29.0,24.0,30.00,SSW,213,7.0,10.0,80,0.00,,,0.00,,2013-02-24 03:32:00,
2013-02-23 22:42:00,29.0,24.0,30.00,SSW,213,7.0,10.0,80,0.00,,,0.00,,2013-02-24 03:42:00,
2013-02-23 22:52:00,29.0,24.0,30.00,WSW,245,2.0,12.0,81,0.00,,,0.00,,2013-02-24 03:52:00,
2013-02-23 23:02:00,29.0,24.0,29.98,West,280,5.0,11.0,81,0.00,,,0.00,,2013-02-24 04:02:00,
2013-02-23 23:11:00,29.0,24.0,29.98,West,280,5.0,11.0,81,0.00,,,0.00,,2013-02-24 04:11:00,
2013-02-23 23:21:00,28.0,23.0,29.98,WSW,256,4.0,13.0,81,0.00,,,0.00,,2013-02-24 04:21:00,
2013-02-23 23:32:00,28.0,23.0,29.98,SW,220,8.0,12.0,81,0.00,,,0.00,,2013-02-24 04:32:00,
2013-02-23 23:42:00,28.0,23.0,29.98,SW,220,8.0,12.0,81,0.00,,,0.00,,2013-02-24 04:42:00,
2013-02-23 23:52:00,28.0,23.0,29.98,South,180,3.0,9.0,81,0.00,,,0.00,,2013-02-24 04:52:00,